sat.trackr.live / text

‹ back to catalog

STARLINK-35306

NORAD 67361 · 2026-003AD

PAYLOAD ACTIVE UNKNOWN

§ Identity

Operator
Country
US
Launch date
2026-01-09
Launch site
AFETR
Launch vehicle
Mass (kg)
RCS (m²)

Purposes: comms

External: N2YO · Heavens-Above · Gunter

§ Orbital elements

Epoch: 2026-05-25T01:17:38.463360Z

Period
94.27 min
Inclination
42.9946°
Eccentricity
0.0001057
Mean motion
15.27589612 rev/d
Perigee alt
482.3 km
Apogee alt
483.7 km
Semi-major
6,861.2 km
B*
4.2435e-4
RAAN
155.7265°
Arg perigee
304.6611°
Mean anomaly
55.4141°
Rev number
2,050

§ Raw data

STARLINK-353061 67361U 26003AD  26145.05391740  .00011437  00000+0  42435-3 0  99972 67361  42.9946 155.7265 0001057 304.6611  55.4141 15.27589612 20507

JSON: /api/v1/satellites/67361 · /tle

For live sub-satellite position, see the globe view (requires WebGL).

§ Visibility from observer

Set your observer location to see the next 7 days of passes ≥ 10°. The values pass through the URL so the page stays shareable.

No JS? Fill the form by hand. The geolocation button needs JavaScript.